"Sample Date","Sample Time","Sample Value","Units","Flow Rate","Sample Interval","Number Channels","Micron Size 0","Counts/Channel 0","Micron Size 1","Counts/Channel 1","Micron Size 2","Counts/Channel 2","Micron Size 3","Counts/Channel 3","Micron Size 4","Counts/Channel 4","Micron Size 5","Counts/Channel 5","Micron Size 6","Counts/Channel 6","Micron Size 7","Counts/Channel 7","Micron Size 8","Counts/Channel 8","Micron Size 9","Counts/Channel 9","Micron Size 10","Counts/Channel 10","Micron Size 11","Counts/Channel 11","Micron Size 12","Counts/Channel 12","Micron Size 13","Counts/Channel 13","Micron Size 14","Counts/Channel 14","Micron Size 15","Counts/Channel 15","Micron Size 16","Counts/Channel 16","Micron Size 17","Counts/Channel 17","Micron Size 18","Counts/Channel 18","Micron Size 19","Counts/Channel 19","Micron Size 20","Counts/Channel 20","Micron Size 21","Counts/Channel 21","Micron Size 22","Counts/Channel 22","Micron Size 23","Counts/Channel 23","Micron Size 24","Counts/Channel 24","Micron Size 25","Counts/Channel 25","Micron Size 26","Counts/Channel 26","Micron Size 27","Counts/Channel 27","Micron Size 28","Counts/Channel 28","Micron Size 29","Counts/Channel 29","Micron Size 30","Counts/Channel 30","Micron Size 31","Counts/Channel 31"
"04/08/08","04:00:05",9441.000,"cc",28408.080,6.00,6,0.100,7120.000,0.200,723.000,0.300,622.000,0.500,710.000,1.000,266.000,5.000,0
"04/08/08","04:00:11",8922.000,"cc",28274.145,6.00,6,0.100,6640.000,0.200,715.000,0.300,630.000,0.500,693.000,1.000,244.000,5.000,0
"04/08/08","04:00:17",9035.000,"cc",28353.385,6.00,6,0.100,6811.000,0.200,715.000,0.300,590.000,0.500,646.000,1.000,273.000,5.000,0
"04/08/08","04:00:23",9063.000,"cc",28278.666,6.00,6,0.100,6733.000,0.200,718.000,0.300,603.000,0.500,732.000,1.000,277.000,5.000,0
"04/08/08","04:00:29",9019.000,"cc",28348.012,6.00,6,0.100,6697.000,0.200,734.000,0.300,593.000,0.500,733.000,1.000,262.000,5.000,0
"04/08/08","04:00:35",9238.000,"cc",28281.709,6.00,6,0.100,6865.000,0.200,712.000,0.300,607.000,0.500,747.000,1.000,307.000,5.000,0
"04/08/08","04:00:41",9413.000,"cc",28327.820,6.00,6,0.100,6900.000,0.200,754.000,0.300,652.000,0.500,791.000,1.000,316.000,5.000,0
"04/08/08","04:00:47",9414.000,"cc",28275.535,6.00,6,0.100,6899.000,0.200,764.000,0.300,674.000,0.500,773.000,1.000,304.000,5.000,0
"04/08/08","04:00:53",9224.000,"cc",28287.607,6.00,6,0.100,6797.000,0.200,739.000,0.300,629.000,0.500,748.000,1.000,311.000,5.000,0
"04/08/08","04:00:59",8660.000,"cc",28352.514,6.00,6,0.100,6368.000,0.200,703.000,0.300,622.000,0.500,690.000,1.000,277.000,5.000,0
"04/08/08","04:01:05",8701.000,"cc",28342.537,6.00,6,0.100,6403.000,0.200,706.000,0.300,575.000,0.500,689.000,1.000,328.000,5.000,0
"04/08/08","04:01:11",8682.000,"cc",28251.850,6.00,6,0.100,6383.000,0.200,679.000,0.300,613.000,0.500,705.000,1.000,302.000,5.000,0
"04/08/08","04:01:17",8647.000,"cc",28282.635,6.00,6,0.100,6325.000,0.200,718.000,0.300,589.000,0.500,744.000,1.000,271.000,5.000,0
"04/08/08","04:01:23",8614.000,"cc",28366.859,6.00,6,0.100,6271.000,0.200,692.000,0.300,607.000,0.500,732.000,1.000,312.000,5.000,0
"04/08/08","04:01:29",8732.000,"cc",28354.002,6.00,6,0.100,6389.000,0.200,702.000,0.300,601.000,0.500,723.000,1.000,317.000,5.000,0
"04/08/08","04:01:35",8892.000,"cc",28220.815,6.00,6,0.100,6481.000,0.200,771.000,0.300,622.000,0.500,704.000,1.000,314.000,5.000,0
"04/08/08","04:01:41",9028.000,"cc",28319.783,6.00,6,0.100,6424.000,0.200,770.000,0.300,667.000,0.500,824.000,1.000,343.000,5.000,0
"04/08/08","04:01:47",8999.000,"cc",28222.566,6.00,6,0.100,6518.000,0.200,775.000,0.300,631.000,0.500,795.000,1.000,280.000,5.000,0
"04/08/08","04:01:53",8897.000,"cc",28194.840,6.00,6,0.100,6315.000,0.200,792.000,0.300,661.000,0.500,790.000,1.000,339.000,5.000,0
"04/08/08","04:01:59",8844.000,"cc",28353.816,6.00,6,0.100,6214.000,0.200,792.000,0.300,710.000,0.500,781.000,1.000,347.000,5.000,0
"04/08/08","04:02:05",8584.000,"cc",28308.232,6.00,6,0.100,6140.000,0.200,794.000,0.300,609.000,0.500,745.000,1.000,296.000,5.000,0
"04/08/08","04:02:11",8941.000,"cc",28328.211,6.00,6,0.100,6313.000,0.200,788.000,0.300,690.000,0.500,776.000,1.000,373.000,5.000,1.000
"04/08/08","04:02:17",8612.000,"cc",28409.961,6.00,6,0.100,6183.000,0.200,762.000,0.300,622.000,0.500,778.000,1.000,267.000,5.000,0
"04/08/08","04:02:23",8602.000,"cc",28315.975,6.00,6,0.100,6205.000,0.200,698.000,0.300,642.000,0.500,740.000,1.000,317.000,5.000,0
"04/08/08","04:02:29",8437.000,"cc",28243.809,6.00,6,0.100,6029.000,0.200,733.000,0.300,594.000,0.500,765.000,1.000,316.000,5.000,0
"04/08/08","04:02:35",8499.000,"cc",28318.016,6.00,6,0.100,6117.000,0.200,705.000,0.300,608.000,0.500,738.000,1.000,331.000,5.000,0
"04/08/08","04:02:41",8452.000,"cc",28314.793,6.00,6,0.100,6074.000,0.200,792.000,0.300,590.000,0.500,699.000,1.000,297.000,5.000,0
"04/08/08","04:02:47",8488.000,"cc",28260.863,6.00,6,0.100,6028.000,0.200,714.000,0.300,656.000,0.500,751.000,1.000,339.000,5.000,0
"04/08/08","04:02:53",8339.000,"cc",28383.676,6.00,6,0.100,5918.000,0.200,753.000,0.300,650.000,0.500,726.000,1.000,292.000,5.000,0
"04/08/08","04:02:59",8430.000,"cc",28389.281,6.00,6,0.100,5931.000,0.200,768.000,0.300,651.000,0.500,731.000,1.000,349.000,5.000,0
"04/08/08","04:03:05",8320.000,"cc",28355.619,6.00,6,0.100,6050.000,0.200,676.000,0.300,622.000,0.500,663.000,1.000,309.000,5.000,0
"04/08/08","04:03:11",8437.000,"cc",28304.662,6.00,6,0.100,5997.000,0.200,772.000,0.300,579.000,0.500,751.000,1.000,338.000,5.000,0
"04/08/08","04:03:17",8381.000,"cc",28302.594,6.00,6,0.100,6022.000,0.200,701.000,0.300,642.000,0.500,717.000,1.000,299.000,5.000,0
"04/08/08","04:03:23",8200.000,"cc",28269.746,6.00,6,0.100,5818.000,0.200,791.000,0.300,597.000,0.500,677.000,1.000,317.000,5.000,0
"04/08/08","04:03:29",8392.000,"cc",28418.631,6.00,6,0.100,6019.000,0.200,743.000,0.300,589.000,0.500,710.000,1.000,331.000,5.000,0
"04/08/08","04:03:35",8352.000,"cc",28328.510,6.00,6,0.100,5940.000,0.200,755.000,0.300,628.000,0.500,715.000,1.000,314.000,5.000,0
"04/08/08","04:03:41",8369.000,"cc",28265.654,6.00,6,0.100,6066.000,0.200,718.000,0.300,571.000,0.500,708.000,1.000,306.000,5.000,0
"04/08/08","04:03:47",8501.000,"cc",28286.992,6.00,6,0.100,6077.000,0.200,762.000,0.300,630.000,0.500,718.000,1.000,314.000,5.000,0
"04/08/08","04:03:53",8170.000,"cc",28402.299,6.00,6,0.100,5913.000,0.200,692.000,0.300,592.000,0.500,683.000,1.000,290.000,5.000,0
"04/08/08","04:03:59",8261.000,"cc",28299.606,6.00,6,0.100,5953.000,0.200,720.000,0.300,585.000,0.500,699.000,1.000,304.000,5.000,0
"04/08/08","04:04:05",8473.000,"cc",28283.678,6.00,6,0.100,6164.000,0.200,710.000,0.300,611.000,0.500,698.000,1.000,290.000,5.000,0
"04/08/08","04:04:11",8395.000,"cc",28377.861,6.00,6,0.100,6099.000,0.200,707.000,0.300,604.000,0.500,691.000,1.000,294.000,5.000,0
"04/08/08","04:04:17",8390.000,"cc",28186.572,6.00,6,0.100,5946.000,0.200,735.000,0.300,611.000,0.500,787.000,1.000,311.000,5.000,0
"04/08/08","04:04:23",8379.000,"cc",28190.547,6.00,6,0.100,5973.000,0.200,718.000,0.300,644.000,0.500,737.000,1.000,307.000,5.000,0
"04/08/08","04:04:29",8483.000,"cc",28450.834,6.00,6,0.100,6103.000,0.200,778.000,0.300,610.000,0.500,695.000,1.000,297.000,5.000,0
"04/08/08","04:04:35",8559.000,"cc",28325.518,6.00,6,0.100,6159.000,0.200,722.000,0.300,633.000,0.500,718.000,1.000,327.000,5.000,0
"04/08/08","04:04:41",8506.000,"cc",28362.527,6.00,6,0.100,6106.000,0.200,726.000,0.300,612.000,0.500,751.000,1.000,311.000,5.000,0
"04/08/08","04:04:47",8335.000,"cc",28306.180,6.00,6,0.100,5989.000,0.200,686.000,0.300,587.000,0.500,776.000,1.000,297.000,5.000,0
"04/08/08","04:04:53",8338.000,"cc",28415.856,6.00,6,0.100,6053.000,0.200,729.000,0.300,594.000,0.500,689.000,1.000,273.000,5.000,0
"04/08/08","04:04:59",8324.000,"cc",28300.654,6.00,6,0.100,5999.000,0.200,726.000,0.300,595.000,0.500,695.000,1.000,309.000,5.000,0
"04/08/08","04:05:05",8521.000,"cc",28269.313,6.00,6,0.100,5982.000,0.200,768.000,0.300,685.000,0.500,741.000,1.000,345.000,5.000,0
"04/08/08","04:05:11",8188.000,"cc",28352.340,6.00,6,0.100,5844.000,0.200,695.000,0.300,604.000,0.500,752.000,1.000,293.000,5.000,0
"04/08/08","04:05:17",8316.000,"cc",28385.975,6.00,6,0.100,5949.000,0.200,702.000,0.300,640.000,0.500,729.000,1.000,296.000,5.000,0
"04/08/08","04:05:23",8123.000,"cc",28292.113,6.00,6,0.100,5819.000,0.200,694.000,0.300,575.000,0.500,758.000,1.000,277.000,5.000,0
"04/08/08","04:05:29",8303.000,"cc",28281.250,6.00,6,0.100,5947.000,0.200,675.000,0.300,598.000,0.500,751.000,1.000,332.000,5.000,0
"04/08/08","04:05:35",8427.000,"cc",28293.443,6.00,6,0.100,6096.000,0.200,685.000,0.300,633.000,0.500,714.000,1.000,299.000,5.000,0
"04/08/08","04:05:41",8242.000,"cc",28224.529,6.00,6,0.100,5952.000,0.200,723.000,0.300,589.000,0.500,648.000,1.000,330.000,5.000,0
"04/08/08","04:05:47",8542.000,"cc",28229.902,6.00,6,0.100,6129.000,0.200,713.000,0.300,655.000,0.500,705.000,1.000,340.000,5.000,0
"04/08/08","04:05:53",8349.000,"cc",28429.941,6.00,6,0.100,6008.000,0.200,723.000,0.300,587.000,0.500,713.000,1.000,318.000,5.000,0
"04/08/08","04:05:59",8198.000,"cc",28445.221,6.00,6,0.100,5913.000,0.200,740.000,0.300,557.000,0.500,697.000,1.000,291.000,5.000,0
"04/08/08","04:06:05",8320.000,"cc",28316.236,6.00,6,0.100,5990.000,0.200,712.000,0.300,605.000,0.500,694.000,1.000,319.000,5.000,0
"04/08/08","04:06:11",8336.000,"cc",28253.363,6.00,6,0.100,5918.000,0.200,711.000,0.300,622.000,0.500,735.000,1.000,350.000,5.000,0
"04/08/08","04:06:17",8223.000,"cc",28281.566,6.00,6,0.100,5948.000,0.200,689.000,0.300,557.000,0.500,694.000,1.000,335.000,5.000,0
"04/08/08","04:06:23",8330.000,"cc",28333.650,6.00,6,0.100,6079.000,0.200,662.000,0.300,611.000,0.500,675.000,1.000,303.000,5.000,0
"04/08/08","04:06:29",8617.000,"cc",28351.172,6.00,6,0.100,6115.000,0.200,741.000,0.300,667.000,0.500,769.000,1.000,325.000,5.000,0
"04/08/08","04:06:35",8182.000,"cc",28171.707,6.00,6,0.100,5848.000,0.200,715.000,0.300,585.000,0.500,717.000,1.000,317.000,5.000,0
"04/08/08","04:06:41",8144.000,"cc",28322.340,6.00,6,0.100,5880.000,0.200,699.000,0.300,604.000,0.500,691.000,1.000,270.000,5.000,0
"04/08/08","04:06:47",8206.000,"cc",28289.666,6.00,6,0.100,5857.000,0.200,712.000,0.300,615.000,0.500,710.000,1.000,312.000,5.000,0
"04/08/08","04:06:53",8496.000,"cc",28344.135,6.00,6,0.100,6151.000,0.200,721.000,0.300,636.000,0.500,680.000,1.000,308.000,5.000,0
"04/08/08","04:06:59",8217.000,"cc",28372.752,6.00,6,0.100,5874.000,0.200,734.000,0.300,611.000,0.500,697.000,1.000,301.000,5.000,0
"04/08/08","04:07:05",8366.000,"cc",28321.494,6.00,6,0.100,5970.000,0.200,668.000,0.300,661.000,0.500,747.000,1.000,320.000,5.000,0
"04/08/08","04:07:11",8110.000,"cc",28363.943,6.00,6,0.100,5859.000,0.200,696.000,0.300,528.000,0.500,711.000,1.000,316.000,5.000,0
"04/08/08","04:07:17",8254.000,"cc",28317.988,6.00,6,0.100,5991.000,0.200,686.000,0.300,579.000,0.500,711.000,1.000,287.000,5.000,0
"04/08/08","04:07:23",8100.000,"cc",28221.859,6.00,6,0.100,5918.000,0.200,703.000,0.300,540.000,0.500,662.000,1.000,277.000,5.000,0
"04/08/08","04:07:29",8051.000,"cc",28363.174,6.00,6,0.100,5810.000,0.200,734.000,0.300,535.000,0.500,671.000,1.000,301.000,5.000,0
"04/08/08","04:07:35",8041.000,"cc",28316.670,6.00,6,0.100,5750.000,0.200,694.000,0.300,593.000,0.500,700.000,1.000,304.000,5.000,0
"04/08/08","04:07:41",8150.000,"cc",28374.742,6.00,6,0.100,5909.000,0.200,754.000,0.300,549.000,0.500,644.000,1.000,294.000,5.000,0
"04/08/08","04:07:47",8103.000,"cc",28267.705,6.00,6,0.100,5845.000,0.200,707.000,0.300,571.000,0.500,664.000,1.000,316.000,5.000,0
"04/08/08","04:07:53",8192.000,"cc",28298.832,6.00,6,0.100,5868.000,0.200,726.000,0.300,597.000,0.500,683.000,1.000,317.000,5.000,1.000
"04/08/08","04:07:59",8208.000,"cc",28264.773,6.00,6,0.100,5893.000,0.200,683.000,0.300,587.000,0.500,730.000,1.000,315.000,5.000,0
"04/08/08","04:08:05",8259.000,"cc",28317.174,6.00,6,0.100,5989.000,0.200,706.000,0.300,586.000,0.500,667.000,1.000,311.000,5.000,0
"04/08/08","04:08:11",7967.000,"cc",28372.711,6.00,6,0.100,5715.000,0.200,694.000,0.300,625.000,0.500,652.000,1.000,281.000,5.000,0
"04/08/08","04:08:17",8126.000,"cc",28283.111,6.00,6,0.100,5830.000,0.200,711.000,0.300,585.000,0.500,690.000,1.000,310.000,5.000,0
"04/08/08","04:08:23",8093.000,"cc",28196.852,6.00,6,0.100,5841.000,0.200,724.000,0.300,572.000,0.500,663.000,1.000,293.000,5.000,0
"04/08/08","04:08:29",8338.000,"cc",28268.736,6.00,6,0.100,5969.000,0.200,757.000,0.300,586.000,0.500,727.000,1.000,298.000,5.000,1.000
"04/08/08","04:08:35",8262.000,"cc",28368.262,6.00,6,0.100,5892.000,0.200,726.000,0.300,634.000,0.500,739.000,1.000,271.000,5.000,0
"04/08/08","04:08:41",8350.000,"cc",28388.678,6.00,6,0.100,6041.000,0.200,707.000,0.300,639.000,0.500,664.000,1.000,299.000,5.000,0
"04/08/08","04:08:47",8112.000,"cc",28304.951,6.00,6,0.100,5830.000,0.200,693.000,0.300,599.000,0.500,702.000,1.000,288.000,5.000,0
"04/08/08","04:08:53",8353.000,"cc",28267.125,6.00,6,0.100,6078.000,0.200,671.000,0.300,585.000,0.500,710.000,1.000,309.000,5.000,0
"04/08/08","04:08:59",8269.000,"cc",28444.139,6.00,6,0.100,5939.000,0.200,670.000,0.300,626.000,0.500,741.000,1.000,293.000,5.000,0
"04/08/08","04:09:05",8117.000,"cc",28220.668,6.00,6,0.100,5797.000,0.200,690.000,0.300,594.000,0.500,733.000,1.000,303.000,5.000,0
"04/08/08","04:09:11",8074.000,"cc",28257.801,6.00,6,0.100,5833.000,0.200,744.000,0.300,558.000,0.500,648.000,1.000,291.000,5.000,0
"04/08/08","04:09:17",8196.000,"cc",28429.344,6.00,6,0.100,5798.000,0.200,730.000,0.300,635.000,0.500,720.000,1.000,313.000,5.000,0
"04/08/08","04:09:23",8267.000,"cc",28283.914,6.00,6,0.100,5906.000,0.200,718.000,0.300,614.000,0.500,683.000,1.000,346.000,5.000,0
"04/08/08","04:09:29",8196.000,"cc",28248.881,6.00,6,0.100,5852.000,0.200,694.000,0.300,598.000,0.500,717.000,1.000,335.000,5.000,0
"04/08/08","04:09:35",8363.000,"cc",28371.900,6.00,6,0.100,5919.000,0.200,760.000,0.300,590.000,0.500,735.000,1.000,359.000,5.000,0
"04/08/08","04:09:41",8455.000,"cc",28432.299,6.00,6,0.100,6059.000,0.200,709.000,0.300,636.000,0.500,722.000,1.000,329.000,5.000,0
"04/08/08","04:09:47",8330.000,"cc",28338.731,6.00,6,0.100,5928.000,0.200,751.000,0.300,623.000,0.500,711.000,1.000,317.000,5.000,0
"04/08/08","04:09:53",8463.000,"cc",28147.246,6.00,6,0.100,5981.000,0.200,769.000,0.300,648.000,0.500,734.000,1.000,331.000,5.000,0
"04/08/08","04:09:59",8273.000,"cc",28266.404,6.00,6,0.100,5870.000,0.200,734.000,0.300,607.000,0.500,733.000,1.000,329.000,5.000,0
"04/08/08","04:10:05",8454.000,"cc",28366.580,6.00,6,0.100,5961.000,0.200,767.000,0.300,642.000,0.500,753.000,1.000,331.000,5.000,0
"04/08/08","04:10:11",8496.000,"cc",28324.359,6.00,6,0.100,6128.000,0.200,734.000,0.300,632.000,0.500,704.000,1.000,298.000,5.000,0
"04/08/08","04:10:17",8139.000,"cc",28389.383,6.00,6,0.100,5912.000,0.200,709.000,0.300,564.000,0.500,671.000,1.000,283.000,5.000,0
"04/08/08","04:10:23",8258.000,"cc",28291.098,6.00,6,0.100,6007.000,0.200,703.000,0.300,592.000,0.500,663.000,1.000,293.000,5.000,0
"04/08/08","04:10:29",8384.000,"cc",28261.150,6.00,6,0.100,6010.000,0.200,718.000,0.300,613.000,0.500,724.000,1.000,319.000,5.000,0
"04/08/08","04:10:35",8526.000,"cc",28247.231,6.00,6,0.100,6042.000,0.200,793.000,0.300,599.000,0.500,738.000,1.000,354.000,5.000,0
"04/08/08","04:10:41",8559.000,"cc",28279.002,6.00,6,0.100,6157.000,0.200,750.000,0.300,639.000,0.500,701.000,1.000,312.000,5.000,0
"04/08/08","04:10:47",8367.000,"cc",28314.647,6.00,6,0.100,6001.000,0.200,722.000,0.300,625.000,0.500,707.000,1.000,312.000,5.000,0
"04/08/08","04:10:53",8266.000,"cc",28321.104,6.00,6,0.100,5888.000,0.200,752.000,0.300,626.000,0.500,697.000,1.000,303.000,5.000,0
"04/08/08","04:10:59",8232.000,"cc",28401.023,6.00,6,0.100,5990.000,0.200,702.000,0.300,561.000,0.500,662.000,1.000,317.000,5.000,0
"04/08/08","04:11:05",8283.000,"cc",28328.287,6.00,6,0.100,5918.000,0.200,746.000,0.300,585.000,0.500,699.000,1.000,335.000,5.000,0
"04/08/08","04:11:11",8368.000,"cc",28303.436,6.00,6,0.100,6004.000,0.200,728.000,0.300,625.000,0.500,680.000,1.000,331.000,5.000,0
"04/08/08","04:11:17",8456.000,"cc",28328.158,6.00,6,0.100,6065.000,0.200,719.000,0.300,616.000,0.500,733.000,1.000,323.000,5.000,0
"04/08/08","04:11:23",8215.000,"cc",28364.041,6.00,6,0.100,5975.000,0.200,673.000,0.300,594.000,0.500,689.000,1.000,284.000,5.000,0
"04/08/08","04:11:29",8227.000,"cc",28322.270,6.00,6,0.100,5922.000,0.200,719.000,0.300,622.000,0.500,677.000,1.000,287.000,5.000,0
"04/08/08","04:11:35",8334.000,"cc",28374.432,6.00,6,0.100,6039.000,0.200,711.000,0.300,612.000,0.500,692.000,1.000,280.000,5.000,0
"04/08/08","04:11:41",7969.000,"cc",28270.873,6.00,6,0.100,5680.000,0.200,695.000,0.300,606.000,0.500,680.000,1.000,307.000,5.000,1.000
"04/08/08","04:11:47",8187.000,"cc",28290.000,6.00,6,0.100,5821.000,0.200,754.000,0.300,634.000,0.500,676.000,1.000,302.000,5.000,0
"04/08/08","04:11:53",8359.000,"cc",28372.076,6.00,6,0.100,5974.000,0.200,737.000,0.300,583.000,0.500,740.000,1.000,325.000,5.000,0
"04/08/08","04:11:59",8522.000,"cc",28272.887,6.00,6,0.100,6059.000,0.200,759.000,0.300,670.000,0.500,706.000,1.000,327.000,5.000,1.000
"04/08/08","04:12:05",8388.000,"cc",28258.106,6.00,6,0.100,5971.000,0.200,806.000,0.300,601.000,0.500,725.000,1.000,285.000,5.000,0
"04/08/08","04:12:11",8494.000,"cc",28320.830,6.00,6,0.100,6093.000,0.200,699.000,0.300,632.000,0.500,742.000,1.000,328.000,5.000,0
"04/08/08","04:12:17",8378.000,"cc",28350.328,6.00,6,0.100,5915.000,0.200,722.000,0.300,640.000,0.500,735.000,1.000,366.000,5.000,0
"04/08/08","04:12:23",8509.000,"cc",28341.725,6.00,6,0.100,6092.000,0.200,705.000,0.300,645.000,0.500,759.000,1.000,308.000,5.000,0
"04/08/08","04:12:29",8442.000,"cc",28302.940,6.00,6,0.100,5941.000,0.200,765.000,0.300,678.000,0.500,740.000,1.000,318.000,5.000,0
"04/08/08","04:12:35",8533.000,"cc",28416.764,6.00,6,0.100,6122.000,0.200,712.000,0.300,647.000,0.500,750.000,1.000,302.000,5.000,0
"04/08/08","04:12:41",8339.000,"cc",28254.135,6.00,6,0.100,5905.000,0.200,740.000,0.300,644.000,0.500,723.000,1.000,327.000,5.000,0
"04/08/08","04:12:47",8469.000,"cc",28342.672,6.00,6,0.100,6027.000,0.200,718.000,0.300,661.000,0.500,746.000,1.000,316.000,5.000,1.000
"04/08/08","04:12:53",8218.000,"cc",28275.738,6.00,6,0.100,5864.000,0.200,695.000,0.300,599.000,0.500,731.000,1.000,329.000,5.000,0
"04/08/08","04:12:59",8469.000,"cc",28179.979,6.00,6,0.100,6070.000,0.200,696.000,0.300,707.000,0.500,711.000,1.000,284.000,5.000,1.000
"04/08/08","04:13:05",8272.000,"cc",28366.455,6.00,6,0.100,5945.000,0.200,692.000,0.300,623.000,0.500,720.000,1.000,292.000,5.000,0
"04/08/08","04:13:11",8445.000,"cc",28375.053,6.00,6,0.100,6029.000,0.200,713.000,0.300,637.000,0.500,763.000,1.000,303.000,5.000,0
"04/08/08","04:13:17",8175.000,"cc",28400.506,6.00,6,0.100,5831.000,0.200,748.000,0.300,585.000,0.500,697.000,1.000,314.000,5.000,0
"04/08/08","04:13:23",8356.000,"cc",28344.264,6.00,6,0.100,5998.000,0.200,724.000,0.300,599.000,0.500,729.000,1.000,306.000,5.000,0
"04/08/08","04:13:29",8208.000,"cc",28258.783,6.00,6,0.100,5789.000,0.200,754.000,0.300,608.000,0.500,719.000,1.000,338.000,5.000,0
"04/08/08","04:13:35",8291.000,"cc",28267.578,6.00,6,0.100,5885.000,0.200,788.000,0.300,623.000,0.500,695.000,1.000,300.000,5.000,0
"04/08/08","04:13:41",8587.000,"cc",28357.143,6.00,6,0.100,6107.000,0.200,736.000,0.300,680.000,0.500,728.000,1.000,336.000,5.000,0
"04/08/08","04:13:47",8322.000,"cc",28344.061,6.00,6,0.100,5932.000,0.200,692.000,0.300,650.000,0.500,742.000,1.000,306.000,5.000,0
"04/08/08","04:13:53",8456.000,"cc",28327.201,6.00,6,0.100,6164.000,0.200,667.000,0.300,613.000,0.500,714.000,1.000,298.000,5.000,0
"04/08/08","04:13:59",8071.000,"cc",28294.477,6.00,6,0.100,5779.000,0.200,663.000,0.300,619.000,0.500,696.000,1.000,314.000,5.000,0
"04/08/08","04:14:05",8411.000,"cc",28349.344,6.00,6,0.100,5994.000,0.200,726.000,0.300,643.000,0.500,725.000,1.000,323.000,5.000,0
"04/08/08","04:14:11",8327.000,"cc",28370.809,6.00,6,0.100,6040.000,0.200,707.000,0.300,586.000,0.500,690.000,1.000,304.000,5.000,0
"04/08/08","04:14:17",8353.000,"cc",28225.770,6.00,6,0.100,6053.000,0.200,711.000,0.300,599.000,0.500,692.000,1.000,298.000,5.000,0
"04/08/08","04:14:23",8387.000,"cc",28380.994,6.00,6,0.100,5979.000,0.200,724.000,0.300,598.000,0.500,742.000,1.000,344.000,5.000,0
"04/08/08","04:14:29",8334.000,"cc",28279.381,6.00,6,0.100,6020.000,0.200,683.000,0.300,553.000,0.500,756.000,1.000,322.000,5.000,0
"04/08/08","04:14:35",8281.000,"cc",28268.590,6.00,6,0.100,5960.000,0.200,654.000,0.300,611.000,0.500,760.000,1.000,296.000,5.000,0
"04/08/08","04:14:41",8469.000,"cc",28326.537,6.00,6,0.100,6071.000,0.200,729.000,0.300,649.000,0.500,716.000,1.000,304.000,5.000,0
"04/08/08","04:14:47",8484.000,"cc",28292.936,6.00,6,0.100,6125.000,0.200,723.000,0.300,602.000,0.500,730.000,1.000,304.000,5.000,0
"04/08/08","04:14:53",8437.000,"cc",28306.527,6.00,6,0.100,6064.000,0.200,750.000,0.300,577.000,0.500,746.000,1.000,300.000,5.000,0
"04/08/08","04:14:59",8573.000,"cc",28299.092,6.00,6,0.100,6153.000,0.200,727.000,0.300,619.000,0.500,740.000,1.000,334.000,5.000,0
"04/08/08","04:15:05",8280.000,"cc",28313.793,6.00,6,0.100,5928.000,0.200,751.000,0.300,620.000,0.500,707.000,1.000,274.000,5.000,0
"04/08/08","04:15:11",8367.000,"cc",28301.807,6.00,6,0.100,5991.000,0.200,753.000,0.300,638.000,0.500,690.000,1.000,295.000,5.000,0
"04/08/08","04:15:17",8563.000,"cc",28280.885,6.00,6,0.100,6102.000,0.200,710.000,0.300,662.000,0.500,768.000,1.000,321.000,5.000,0
"04/08/08","04:15:23",8476.000,"cc",28390.154,6.00,6,0.100,6039.000,0.200,737.000,0.300,635.000,0.500,708.000,1.000,357.000,5.000,0
"04/08/08","04:15:29",8440.000,"cc",28320.775,6.00,6,0.100,6082.000,0.200,729.000,0.300,581.000,0.500,734.000,1.000,314.000,5.000,0
"04/08/08","04:15:35",8296.000,"cc",28373.240,6.00,6,0.100,5976.000,0.200,683.000,0.300,591.000,0.500,723.000,1.000,323.000,5.000,0
"04/08/08","04:15:41",8343.000,"cc",28355.066,6.00,6,0.100,6005.000,0.200,732.000,0.300,593.000,0.500,695.000,1.000,318.000,5.000,0
"04/08/08","04:15:47",8212.000,"cc",28365.557,6.00,6,0.100,5875.000,0.200,704.000,0.300,610.000,0.500,711.000,1.000,312.000,5.000,0
"04/08/08","04:15:53",8249.000,"cc",28293.318,6.00,6,0.100,5874.000,0.200,717.000,0.300,591.000,0.500,743.000,1.000,324.000,5.000,0
"04/08/08","04:15:59",8313.000,"cc",28213.223,6.00,6,0.100,5969.000,0.200,725.000,0.300,576.000,0.500,691.000,1.000,352.000,5.000,0
"04/08/08","04:16:05",8368.000,"cc",28331.639,6.00,6,0.100,5899.000,0.200,789.000,0.300,639.000,0.500,730.000,1.000,311.000,5.000,0
"04/08/08","04:16:11",8501.000,"cc",28369.732,6.00,6,0.100,6058.000,0.200,767.000,0.300,582.000,0.500,767.000,1.000,327.000,5.000,0
"04/08/08","04:16:17",8162.000,"cc",28349.883,6.00,6,0.100,5837.000,0.200,688.000,0.300,602.000,0.500,718.000,1.000,317.000,5.000,0
"04/08/08","04:16:23",8312.000,"cc",28287.891,6.00,6,0.100,5933.000,0.200,691.000,0.300,656.000,0.500,744.000,1.000,288.000,5.000,0
"04/08/08","04:16:29",8170.000,"cc",28202.320,6.00,6,0.100,5929.000,0.200,730.000,0.300,590.000,0.500,626.000,1.000,295.000,5.000,0
"04/08/08","04:16:35",8223.000,"cc",28374.998,6.00,6,0.100,5946.000,0.200,709.000,0.300,554.000,0.500,692.000,1.000,322.000,5.000,0
"04/08/08","04:16:41",8413.000,"cc",28340.240,6.00,6,0.100,6041.000,0.200,768.000,0.300,587.000,0.500,689.000,1.000,328.000,5.000,0
"04/08/08","04:16:47",8242.000,"cc",28250.313,6.00,6,0.100,5882.000,0.200,690.000,0.300,644.000,0.500,703.000,1.000,323.000,5.000,0
"04/08/08","04:16:53",8245.000,"cc",28380.121,6.00,6,0.100,5934.000,0.200,732.000,0.300,600.000,0.500,681.000,1.000,298.000,5.000,0
"04/08/08","04:16:59",8309.000,"cc",28258.611,6.00,6,0.100,5952.000,0.200,725.000,0.300,627.000,0.500,699.000,1.000,306.000,5.000,0